Regional Weather Roundup
Issued by NWS

Home | Current Version | Previous Version | Text Only | Print | Product List | Glossary On
Versions: 1 2 3 4 5 6 7 8 9 10 11 12 13 14 15 16 17 18 19 20 21 22 23 24 25 26 27 28 29 30 31 32 33 34 35 36 37 38 39 40 41 42 43 44 45 46 47 48 49 50
000
ASUS44 KLUB 272110
RWRTX
WEST TEXAS WEATHER ROUNDUP
NATIONAL WEATHER SERVICE LUBBOCK TX
400 PM CDT FRI MAR 27 2015

NOTE: "FAIR" INDICATES FEW OR NO CLOUDS BELOW 12,000 FEET WITH NO
SIGNIFICANT WEATHER AND/OR OBSTRUCTIONS TO VISIBILITY.

TXZ004-006>008-010-012-014-016-OKZ002-272200-
TEXAS PANHANDLE/OKLAHOMA PANHANDLE

CITY           SKY/WX    TMP DP  RH WIND       PRES   REMARKS
AMARILLO       SUNNY     72  26  18 W8        30.14F
BORGER         SUNNY     71  29  21 SE7       30.13F
CANADIAN       SUNNY     66  33  29 S8        30.14F
DALHART        SUNNY     71  27  19 CALM      30.13F
DUMAS          SUNNY     72  29  20 E3        30.13F
GUYMON         SUNNY     65  33  30 SW8G18    30.11F
HEREFORD       SUNNY     76  28  17 SE6       30.13F
PAMPA          SUNNY     68  30  23 W8        30.15F
PERRYTON       SUNNY     64  32  30 SW9       30.13F
$$

TXZ026-029-035-045-048-272200-
SOUTHERN PANHANDLE/SOUTH PLAINS/ROLLING PLAINS

CITY           SKY/WX    TMP DP  RH WIND       PRES   REMARKS
CHILDRESS      SUNNY     67  31  26 SE8       30.16F
SEMINOLE       SUNNY     78  26  15 W13G18    30.12F
LUBBOCK        MOSUNNY   76  26  15 VRB5      30.12F
PLAINVIEW      SUNNY     75  29  18 S8        30.11F
SNYDER         SUNNY     74  32  20 E6        30.13F
$$

TXZ052-054-060>062-072-078-127-140-154-169-272200-
PERMIAN BASIN/CONCHO VALLEY/BIG COUNTRY/EDWARDS PLATEAU

CITY           SKY/WX    TMP DP  RH WIND       PRES   REMARKS
ABILENE        SUNNY     74  30  19 NW6       30.14F
BIG SPRING     SUNNY     82  29  14 W13G21    30.15F
BRADY          SUNNY     79  28  15 W6        30.14F
BROWNWOOD      SUNNY     75  32  20 W5        30.13F
JUNCTION       SUNNY     78  30  17 SW8       30.14F
MIDLAND        SUNNY     77  29  17 SW14      30.13F
ODESSA         SUNNY     77  26  15 W13       30.14F
SAN ANGELO     SUNNY     78  31  17 SW13      30.12F
SONORA         SUNNY     75  32  20 SW12G20   30.20F
SWEETWATER     SUNNY     75  26  16 CALM      30.16F
WINK           SUNNY     80  26  13 W10       30.10F
$$

TXZ055-058-074-075-080-082-272200-
FAR WEST/SOUTHWEST MOUNTAINS/TRANS PECOS

CITY           SKY/WX    TMP DP  RH WIND       PRES   REMARKS
ALPINE         SUNNY     74  27  17 SW16      30.26F
DRYDEN           N/A     80  29  15 W10       30.13F
EL PASO        SUNNY     78  21  12 SW12      30.18F
FORT STOCKTON  SUNNY     80  22  11 VRB7      30.13F
GUADALUPE PASS SUNNY     72  28  19 SW24G35   30.24F
MARFA          SUNNY     72  25  17 W7        30.25F
PECOS          SUNNY     81  32  16 W9G17     30.11F
PRESIDIO       FAIR      76  32  19 CALM      30.17F
$$

TXZ014-016-019-021>030-083-272200
TEXAS TECH WEST TEXAS MESONET/TEXAS PANHANDLE/NORTHERN SOUTH PLAINS

CITY           SKY/WX    TMP DP  RH WIND       PRES   REMARKS
ABERNATHY 5ENE   N/A     75  25  15 SE7       30.13F
AMARILLO 9NNE    N/A     72  28  19 SW8       30.12F
AMARILLO 7SSE    N/A     71  31  22 S8        30.14F
AMHERST 1NE      N/A     74  24  15 E2        30.13F
BOOTLEG 11WNW    N/A     71  25  18 E2        30.16F
CANADIAN 6E      N/A     66  32  28 SW7       30.12F
CAPROCK CYN SP   N/A     70  30  22 E8        30.14F
CHILDRESS 2NNE   N/A     67  31  26 SE7       30.16F
CLARENDON 2WSW   N/A     67  29  23 S10       30.15F
CLAUDE 12SW      N/A     68  31  25 S9        30.14F
DIMMITT 2NE      N/A     71  30  22 SE7       30.14F
FLOYDADA 2NNE    N/A     73  23  15 SE9       30.14F
FRIONA 2NE       N/A     71  25  17 N3        30.15F
GOODLETT 3W      N/A     66  33  29 E2        30.16F
HART 3N          N/A     72  26  18 SW5       30.13F
HEREFORD 2NW     N/A     73  24  15 E5        30.13F
MCLEAN 1E        N/A     67  30  25 S13       30.13F
MEMPHIS 1NE      N/A     67  30  24 SE9       30.15F
MULESHOE 2SSW    N/A     74  24  15 N5        30.13F
OLTON 6S         N/A     75  24  14 S1        30.12F
PALO DURO SP     N/A     72  31  22 SE7       30.15F
PAMPA 2E         N/A     67  32  26 S6        30.14F
PLAINVIEW 1S     N/A     73  31  20 E7        30.12F
SILVERTON 7ESE   N/A     69  30  23 SE8       30.15F
TULIA 2ENE       N/A     73  31  21 SE9       30.13F
TURKEY 2WSW      N/A     71  30  21 SE10      30.13F
UMBARGER 3NNE    N/A     71  30  21 SE10      30.14F
$$

TXZ033>036-039>041-045>048-272200
TEXAS TECH WEST TEXAS MESONET/SOUTH PLAINS

CITY           SKY/WX    TMP DP  RH WIND       PRES   REMARKS
AIKEN 3WSW       N/A     73  29  20 SE5       30.14F
ANDREWS 2NE      N/A     77  24  14 SW9       30.13F
ANTON 6SSW       N/A     75  24  15 S5        30.11F
BROWNFIELD 2S    N/A     76  22  13 SE2       30.11F
DENVR CTY 7WNW   N/A     77  19  11 W6        30.11F
GAIL 2ESE        N/A     79  30  16 SW2       30.10F
LAMESA 2SE       N/A     79  26  14 SW9       30.11F
LEVELLAND 4S     N/A     76  21  12 E3        30.12F
LUBBOCK 3WNW     N/A     78  23  13 S7        30.12F
MORTON 1ENE      N/A     75  22  13 NE3       30.12F
ODONNELL 1N      N/A     79  21  11 W3        30.11F
PLAINS 3N        N/A     77  21  12 SW1       30.11F
RALLS 1SE        N/A     74  28  18 S10       30.14F
REESE CENTER     N/A     76  20  12 NE1       30.12F
SEAGRAVES 1SW    N/A     79  23  12 NW7       30.10F
SEMINOLE 2NNE    N/A     79  23  12 SW8       30.10F
SLATON 2NE       N/A     75  30  19 SE10      30.12F
SNYDER 3E        N/A     77  29  17 E6        30.12F
SUNDOWN 8SW      N/A     78  22  12 N8        30.11F
TAHOKA 3NNE      N/A     77  24  13 N1        30.10F
WOLFFORTH 6SSW   N/A     77  27  16 N2        30.11F
$$

TXZ031-032-036>038-042>044-272200-
TEXAS TECH WEST TEXAS MESONET/ROLLING PLAINS

CITY           SKY/WX    TMP DP  RH WIND       PRES   REMARKS
ASPERMONT 3NE    N/A     73  33  23 E3        30.14F
FLUVANNA 3WNW    N/A     77  29  17 S7        30.12F
GRAHAM 5SSW      N/A     75  28  17 SE10      30.11F
GUTHRIE 10WSW    N/A     73  32  22 SE8       30.14F
HASKELL 1NW      N/A     68  36  30 NE8       30.15F
JAYTON 1SSE      N/A     72  32  23 NE6       30.13F
KNOX CITY 3NW    N/A     69  35  28 NE5       30.16F
LK A HENRY 1NW   N/A     75  33  20 E6        30.11F
NORTHFIELD 1S    N/A     71  31  22 S6        30.14F
ODELL 4ENE       N/A     64  37  36 E1        30.18F
PADUCAH 10SW     N/A     71  34  25 E9        30.14F
POST 1NE         N/A     77  31  18 SE9       30.11F
RRING SPRGS 3N   N/A     71  32  23 S6        30.14F
SEYMOUR 3NW      N/A     66  37  35 E3        30.17S
SPUR 1W          N/A     72  31  22 E8        30.13F
WEINERT 2NNE     N/A     68  39  34 E2        30.16F
WHITE RVR 6NE    N/A     73  29  19 E3        30.13F
$$

TXZ052-054-060>062-072-078-127-140-154-169-272200-
TEXAS TECH WEST TEXAS MESONET/PERMIAN BASIN/
CONCHO VALLEY/BIG COUNTRY/EDWARDS PLATEAU

CITY           SKY/WX    TMP DP  RH WIND       PRES   REMARKS
COYANOSA 2N      N/A     81  30  15 SW7       30.11F
JUNCTION 1SSW    N/A     77  32  19 S5        30.14F
MERTZON 3NNE     N/A     78  32  18 S12       30.14F
SAN ANGELO 7NW   N/A     77  28  16 W7        30.13F
STRLNG CT 4WSW   N/A     78  27  15 SW9       30.13F
ST LAWRNCE 5SW   N/A     77  21  12 SW12      30.13F
SWEETWATR 11SW   N/A     76  29  17 SW1       30.14F
WALL 1E          N/A     77  29  17 SW9       30.14F
$$

TXZ055-058-074-075-080-082-272200-
TEXAS TECH WEST TEXAS MESONET/FAR WEST/SOUTHWEST MOUNTAINS/TRANS PECOS

CITY           SKY/WX    TMP DP  RH WIND       PRES   REMARKS
PRSMN GAP BBNP   N/A     78  31  18 S9        30.16F
$$


USA.gov is the U.S. government's official web portal to all federal, state and local government web resources and services.